Simultaneous Nadir Overpasses (SNOs) Predictions

Prediction of SNOs between TERRA and METOP-C Satellite Orbit:

Table of predicted SNOs for the next 14.0 days since TLE Epoch: 10/8/2022
Index Date (TERRA) Time (TERRA) Lat,Lon (TERRA) SZA (TERRA ) Date (METOP-C) Time (METOP-C) Lat,Lon (METOP-C) SZA (METOP-C ) Distance(km) Time Diff (sec)
1 10/08/2022 17:57:52 -81.02, 128.24 90.77 10/08/2022 17:56:59 -81.03, 128.40 90.78 2.84 53
2 10/08/2022 18:47:17 81.05, -63.71 89.31 10/08/2022 18:47:38 81.05, -63.81 89.30 1.97 21
3 10/11/2022 13:31:57 -81.03,-165.25 89.69 10/11/2022 13:31:25 -81.02,-165.38 89.72 2.24 32
4 10/11/2022 14:21:22 81.06, 2.77 90.39 10/11/2022 14:22:03 81.05, 2.70 90.40 1.43 41
5 10/14/2022 09:06:01 -81.04, -98.62 88.60 10/14/2022 09:05:49 -81.04, -98.50 88.59 1.98 12
6 10/14/2022 09:55:26 81.07, 69.39 91.48 10/14/2022 09:56:27 81.07, 69.50 91.51 1.92 61
7 10/17/2022 03:50:38 81.02, 159.88 92.39 10/17/2022 03:49:33 81.01, 159.85 92.35 0.83 65
8 10/17/2022 04:40:04 -81.04, -32.19 87.56 10/17/2022 04:40:13 -81.04, -32.07 87.54 2.09 9
9 10/19/2022 23:24:41 81.02,-133.58 93.43 10/19/2022 23:23:57 81.02,-133.49 93.42 1.50 44



Historial Predications of SNOs between TERRA and METOP-C
